Weather History for Pinedale, WY

Change the Weather History Date:

Monday, March 25, 2013

  Actual Average (KBPI) Record (KBPI)
Temperature  
Mean Temperature 16 °F 31 °F  
Max Temperature 32 °F 45 °F 66 °F (2012)
Min Temperature 0 °F 17 °F -18 °F (1996)
Degree Days  
Heating Degree Days 49 34  
Month to date heating degree days 975  
Since 1 July heating degree days 8498  
Cooling Degree Days 0 0  
Month to date cooling degree days 0  
Year to date cooling degree days 0  
Moisture  
Dew Point 2 °F    
Average Humidity 57    
Maximum Humidity 92    
Minimum Humidity 21    
Precipitation  
Precipitation 0.00 in 0.02 in 0.28 in (2001)
Month to date precipitation 0.33  
Year to date precipitation 0.99  
Sea Level Pressure  
Sea Level Pressure 30.12 in    
Wind  
Wind Speed 4 mph (WNW)    
Max Wind Speed 7 mph    
Max Gust Speed -    
Visibility 10 miles    
Events      
T = Trace of Precipitation, MM = Missing Value Source: NWS Daily Summary

Daily Weather History Graph

Daily Weather History Graph

Search for Another Location

Airport:

Trip Planner

Search our weather history database for the weather conditions in past years. The results will help you decide how hot, cold, wet, or windy it might be!

Date:

Astronomy

Mar. 25, 2013 Rise Set
Actual Time 7:13 AM MDT 7:37 PM MDT
Civil Twilight 6:44 AM MDT 8:06 PM MDT
Nautical Twilight 6:11 AM MDT 8:39 PM MDT
Astronomical Twilight 5:37 AM MDT 9:13 PM MDT
Moon 6:11 PM MDT (3/25) 6:00 AM MDT (3/25)
Length of Visible Light 13h 21m
Length of Day
12h 24m
Waxing Gibbous, 97% of the Moon is Illuminated
Mar 25
Waxing Gibbous
Mar 27
Full
Apr 2
Last Quarter
Apr 10
New
Apr 18
First Quarter

Hourly Weather History & Observations

Time (MDT) Temp. Windchill Dew Point Humidity Pressure Visibility Wind Dir Wind Speed Gust Speed Precip Events Conditions
12:15 AM 8.6 °F 0.1 °F 3.2 °F 79% 30.12 in 10.0 mi NW 4.6 mph - N/A   Clear
12:35 AM 8.6 °F 2.0 °F 3.2 °F 79% 30.12 in 10.0 mi NNW 3.5 mph - N/A   Clear
12:55 AM 8.6 °F -2.6 °F 1.4 °F 73% 30.12 in 10.0 mi NW 6.9 mph - N/A   Clear
1:15 AM 6.8 °F -0.1 °F 1.4 °F 79% 30.13 in 10.0 mi NW 3.5 mph - N/A   Scattered Clouds
1:35 AM 6.8 °F -0.1 °F 1.4 °F 79% 30.13 in 10.0 mi WNW 3.5 mph - N/A   Scattered Clouds
1:55 AM 6.8 °F -3.5 °F 1.4 °F 79% 30.13 in 10.0 mi NW 5.8 mph - N/A   Mostly Cloudy
2:15 AM 5.0 °F -5.6 °F -0.4 °F 78% 30.13 in 10.0 mi NW 5.8 mph - N/A   Scattered Clouds
2:35 AM 5.0 °F -2.1 °F -0.4 °F 78% 30.13 in 10.0 mi NW 3.5 mph - N/A   Clear
2:55 AM 3.2 °F -4.2 °F -0.4 °F 85% 30.13 in 10.0 mi NW 3.5 mph - N/A   Clear
3:15 AM 3.2 °F -6.2 °F -0.4 °F 85% 30.13 in 10.0 mi West 4.6 mph - N/A   Clear
3:35 AM 3.2 °F -6.2 °F -0.4 °F 85% 30.13 in 10.0 mi NW 4.6 mph - N/A   Clear
3:55 AM 3.2 °F -6.2 °F -0.4 °F 85% 30.13 in 10.0 mi NNW 4.6 mph - N/A   Clear
4:15 AM 3.2 °F -4.2 °F -0.4 °F 85% 30.13 in 10.0 mi WNW 3.5 mph - N/A   Scattered Clouds
4:35 AM 1.4 °F -6.2 °F -0.4 °F 92% 30.13 in 10.0 mi NW 3.5 mph - N/A   Scattered Clouds
4:55 AM 3.2 °F -4.2 °F -0.4 °F 85% 30.13 in 10.0 mi NW 3.5 mph - N/A   Scattered Clouds
5:15 AM 1.4 °F -8.3 °F -2.2 °F 85% 30.13 in 10.0 mi WNW 4.6 mph - N/A   Scattered Clouds
5:35 AM 1.4 °F -8.3 °F -4.0 °F 78% 30.13 in 10.0 mi NW 4.6 mph - N/A   Clear
5:55 AM 1.4 °F -9.9 °F -4.0 °F 78% 30.13 in 10.0 mi NW 5.8 mph - N/A   Scattered Clouds
6:15 AM 1.4 °F -8.3 °F -4.0 °F 78% 30.14 in 10.0 mi NW 4.6 mph - N/A   Scattered Clouds
6:35 AM 1.4 °F -11.3 °F -4.0 °F 78% 30.14 in 10.0 mi WNW 6.9 mph - N/A   Clear
6:55 AM 1.4 °F -9.9 °F -5.8 °F 72% 30.15 in 10.0 mi WNW 5.8 mph - N/A   Clear
7:15 AM -0.4 °F -13.4 °F -5.8 °F 78% 30.16 in 10.0 mi WNW 6.9 mph - N/A   Clear
7:35 AM -0.4 °F -10.4 °F -5.8 °F 78% 30.16 in 10.0 mi WNW 4.6 mph - N/A   Clear
7:55 AM 1.4 °F -8.3 °F -4.0 °F 78% 30.16 in 10.0 mi West 4.6 mph - N/A   Clear
8:15 AM 3.2 °F -7.8 °F -4.0 °F 72% 30.17 in 10.0 mi WNW 5.8 mph - N/A   Clear
8:35 AM 5.0 °F -5.6 °F -0.4 °F 78% 30.17 in 10.0 mi WNW 5.8 mph - N/A   Clear
8:55 AM 8.6 °F 2.0 °F -0.4 °F 67% 30.17 in 10.0 mi WNW 3.5 mph - N/A   Clear
9:15 AM 10.4 °F 4.0 °F 1.4 °F 67% 30.17 in 10.0 mi NW 3.5 mph - N/A   Clear
9:35 AM 14.0 °F - -0.4 °F 53% 30.17 in 10.0 mi Calm Calm - N/A   Clear
9:55 AM 17.6 °F - 3.2 °F 53% 30.17 in 10.0 mi Calm Calm - N/A   Clear
10:15 AM 19.4 °F 12.8 °F 5.0 °F 54% 30.17 in 10.0 mi East 4.6 mph - N/A   Clear
10:35 AM 19.4 °F - 5.0 °F 54% 30.17 in 10.0 mi Calm Calm - N/A   Clear
10:55 AM 21.2 °F - 5.0 °F 50% 30.17 in 10.0 mi Calm Calm - N/A   Clear
11:15 AM 21.2 °F 14.9 °F 5.0 °F 50% 30.17 in 10.0 mi ESE 4.6 mph - N/A   Clear
11:35 AM 23.0 °F - 3.2 °F 43% 30.16 in 10.0 mi Calm Calm - N/A   Clear
11:55 AM 23.0 °F - 3.2 °F 43% 30.16 in 10.0 mi Calm Calm - N/A   Clear
12:15 PM 24.8 °F 19.1 °F 3.2 °F 40% 30.16 in 10.0 mi SE 4.6 mph - N/A   Clear
12:35 PM 26.6 °F 21.2 °F 3.2 °F 37% 30.15 in 10.0 mi SSE 4.6 mph - N/A   Clear
12:55 PM 26.6 °F 22.6 °F 3.2 °F 37% 30.14 in 10.0 mi WSW 3.5 mph - N/A   Clear
1:15 PM 28.4 °F 21.2 °F 3.2 °F 34% 30.14 in 10.0 mi South 6.9 mph - N/A   Clear
1:35 PM 28.4 °F 23.3 °F 3.2 °F 34% 30.13 in 10.0 mi West 4.6 mph - N/A   Clear
1:55 PM 30.2 °F 24.3 °F 3.2 °F 32% 30.13 in 10.0 mi SSW 5.8 mph - N/A   Clear
2:15 PM 28.4 °F 24.6 °F 3.2 °F 34% 30.12 in 10.0 mi SW 3.5 mph - N/A   Clear
2:35 PM 30.2 °F 23.4 °F 3.2 °F 32% 30.11 in 10.0 mi WSW 6.9 mph - N/A   Clear
2:55 PM 30.2 °F 23.4 °F 3.2 °F 32% 30.11 in 10.0 mi South 6.9 mph - N/A   Clear
3:15 PM 30.2 °F 24.3 °F 3.2 °F 32% 30.10 in 10.0 mi West 5.8 mph - N/A   Clear
3:35 PM 30.2 °F - 3.2 °F 32% 30.09 in 10.0 mi Calm Calm - N/A   Clear
3:55 PM 32.0 °F 28.7 °F -0.4 °F 25% 30.09 in 10.0 mi South 3.5 mph - N/A   Clear
4:15 PM 32.0 °F 28.7 °F -0.4 °F 25% 30.09 in 10.0 mi NNW 3.5 mph - N/A   Clear
4:35 PM 32.0 °F 27.5 °F -4.0 °F 21% 30.08 in 10.0 mi South 4.6 mph - N/A   Clear
4:55 PM 32.0 °F 28.7 °F -0.4 °F 25% 30.08 in 10.0 mi SSW 3.5 mph - N/A   Clear
5:15 PM 32.0 °F 27.5 °F 1.4 °F 27% 30.08 in 10.0 mi West 4.6 mph - N/A   Clear
5:35 PM 32.0 °F 27.5 °F -0.4 °F 25% 30.08 in 10.0 mi West 4.6 mph - N/A   Clear
5:55 PM 32.0 °F - 1.4 °F 27% 30.08 in 10.0 mi Calm Calm - N/A   Clear
6:15 PM 32.0 °F - 3.2 °F 30% 30.08 in 10.0 mi Calm Calm - N/A   Clear
6:35 PM 32.0 °F - 3.2 °F 30% 30.08 in 10.0 mi Calm Calm - N/A   Clear
6:55 PM 32.0 °F - 3.2 °F 30% 30.07 in 10.0 mi Calm Calm - N/A   Clear
7:15 PM 30.2 °F 26.7 °F 3.2 °F 32% 30.07 in 10.0 mi South 3.5 mph - N/A   Clear
7:35 PM 28.4 °F 24.6 °F 5.0 °F 37% 30.07 in 10.0 mi South 3.5 mph - N/A   Clear
7:55 PM 26.6 °F 22.6 °F 5.0 °F 40% 30.06 in 10.0 mi South 3.5 mph - N/A   Clear
8:15 PM 26.6 °F - 5.0 °F 40% 30.07 in 10.0 mi Calm Calm - N/A   Clear
8:35 PM 21.2 °F - 8.6 °F 58% 30.07 in 10.0 mi Calm Calm - N/A   Clear
8:55 PM 23.0 °F - 10.4 °F 59% 30.08 in 10.0 mi Calm Calm - N/A   Clear
9:15 PM 23.0 °F - 10.4 °F 59% 30.08 in 10.0 mi Calm Calm - N/A   Clear
9:35 PM 21.2 °F - 10.4 °F 63% 30.08 in 10.0 mi Calm Calm - N/A   Clear
9:55 PM 21.2 °F 12.6 °F 10.4 °F 63% 30.08 in 10.0 mi NNE 6.9 mph - N/A   Clear
10:15 PM 19.4 °F 14.3 °F 8.6 °F 63% 30.09 in 10.0 mi WSW 3.5 mph - N/A   Clear
10:35 PM 19.4 °F - 8.6 °F 63% 30.09 in 10.0 mi Calm Calm - N/A   Clear
10:55 PM 17.6 °F 12.3 °F 10.4 °F 73% 30.08 in 10.0 mi WNW 3.5 mph - N/A   Scattered Clouds
11:15 PM 17.6 °F 10.7 °F 10.4 °F 73% 30.08 in 10.0 mi NW 4.6 mph - N/A   Clear
11:35 PM 15.8 °F 10.2 °F 10.4 °F 79% 30.08 in 10.0 mi WNW 3.5 mph - N/A   Clear
11:55 PM 17.6 °F - 10.4 °F 73% 30.08 in 10.0 mi Calm Calm - N/A   Scattered Clouds